EW7788 Weather Reports


time (UTC)temp
C
wind
direction
speed
KPH
gust
KPH
rain 1hr
cm
rain 24hr
cm
rain mn
cm
humidity
%
barometer
mb
20260510204606 6 342 4.8 8.0 0.00 0.03 0.03 91 1032.8
20260510203017 6 342 4.8 8.0 0.00 0.03 0.03 91 1032.6
20260510201503 6 342 3.2 8.0 0.00 0.03 0.03 91 1032.4
20260510200005 6 342 4.8 8.0 0.00 0.03 0.03 91 1032.2
20260510194612 6 336 4.8 8.0 0.00 0.03 0.03 91 1032.1
20260510193004 6 336 8.0 12.9 0.00 0.03 0.03 91 1032.0
20260510191609 6 337 6.4 12.9 0.00 0.03 0.03 91 1031.9
20260510190031 6 337 8.0 12.9 0.00 0.03 0.03 91 1031.8
20260510184504 6 340 6.4 12.9 0.00 0.03 0.03 91 1031.7
20260510183005 6 323 6.4 9.7 0.03 0.03 0.03 91 1031.5
20260510181603 6 337 3.2 4.8 0.03 0.03 0.03 91 1031.4
20260510180004 6 337 3.2 8.0 0.03 0.03 0.03 91 1031.3
20260510174606 6 348 4.8 9.7 0.03 0.03 0.03 91 1031.2
20260510173003 6 348 4.8 8.0 0.00 0.00 0.00 91 1031.3
20260510171603 6 346 4.8 8.0 0.00 0.00 0.00 91 1031.3
20260510170005 7 355 6.4 9.7 0.00 0.00 0.00 91 1031.3
20260510164611 6 29 3.2 4.8 0.00 0.00 0.00 91 1031.3
20260510163004 6 29 3.2 6.4 0.00 0.00 0.00 91 1031.4
20260510161604 6 29 1.6 4.8 0.00 0.00 0.00 91 1031.5
20260510160004 6 29 1.6 4.8 0.00 0.00 0.00 90 1031.4
20260510154604 6 29 1.6 4.8 0.00 0.00 0.00 91 1031.4
20260510153005 6 29 0.0 6.4 0.00 0.00 0.00 90 1031.2
20260510151604 6 29 3.2 4.8 0.00 0.00 0.00 90 1031.2
20260510150003 7 29 3.2 8.0 0.00 0.00 0.00 90 1031.3
20260510143010 7 360 1.6 4.8 0.00 0.00 0.00 90 1031.4
20260510141609 7 360 3.2 4.8 0.00 0.00 0.00 90 1031.4
20260510134609 7 346 3.2 6.4 0.00 0.00 0.00 89 1031.4
20260510133003 7 13 3.2 4.8 0.00 0.00 0.00 89 1031.4
20260510131603 7 360 3.2 4.8 0.00 0.00 0.00 88 1031.4
20260510130020 7 360 1.6 4.8 0.00 0.00 0.00 88 1031.4
20260510124603 8 360 1.6 4.8 0.00 0.00 0.00 88 1031.4
20260510123005 8 360 1.6 6.4 0.00 0.00 0.00 87 1031.6
20260510121609 8 95 3.2 4.8 0.00 0.00 0.00 87 1031.6
20260510120002 8 95 0.0 3.2 0.00 0.00 0.00 86 1031.6
20260510114618 9 95 0.0 3.2 0.00 0.00 0.00 86 1031.6
20260510113003 9 95 0.0 3.2 0.00 0.00 0.00 86 1031.6
20260510111612 9 95 0.0 3.2 0.00 0.00 0.00 86 1031.4
20260510110005 10 95 1.6 6.4 0.00 0.00 0.00 85 1031.4
20260510104620 10 96 1.6 6.4 0.00 0.00 0.00 84 1031.4
20260510103003 10 107 1.6 4.8 0.00 0.00 0.00 84 1031.4
20260510101612 10 167 3.2 6.4 0.00 0.00 0.00 83 1031.4
20260510100004 10 150 3.2 8.0 0.00 0.00 0.00 83 1031.6
20260510094608 10 138 1.6 8.0 0.00 0.00 0.00 82 1031.5
20260510093004 11 107 3.2 8.0 0.00 0.00 0.00 82 1031.4
20260510090004 11 67 0.0 3.2 0.00 0.00 0.00 81 1031.2
20260510083010 11 67 0.0 3.2 0.00 0.00 0.00 81 1031.0
20260510081603 11 67 0.0 1.6 0.00 0.00 0.00 80 1030.7
20260510080004 11 67 1.6 11.3 0.00 0.00 0.00 81 1030.6
20260510074608 11 128 0.0 3.2 0.00 0.00 0.00 81 1030.5
20260510073006 11 136 0.0 3.2 0.00 0.00 0.00 81 1030.4
20260510071605 11 138 1.6 4.8 0.00 0.00 0.00 81 1030.3
20260510070013 11 123 1.6 6.4 0.00 0.00 0.00 80 1030.2
20260510064509 12 145 3.2 6.4 0.00 0.00 0.00 81 1030.1
20260510063003 12 183 3.2 6.4 0.00 0.00 0.00 81 1030.1
20260510061603 12 172 4.8 8.0 0.00 0.00 0.00 80 1030.1
20260510060004 12 157 8.0 12.9 0.00 0.00 0.00 79 1030.1
20260510054538 12 165 3.2 8.0 0.00 0.00 0.00 78 1030.0
20260510053035 13 161 8.0 16.1 0.00 0.00 0.00 77 1029.9
20260510051535 13 200 8.0 14.5 0.00 0.00 0.00 79 1029.8
20260510050008 12 75 0.0 4.8 0.00 0.00 0.00 79 1029.8
20260510044612 12 263 1.6 11.3 0.00 0.00 0.00 80 1029.8
20260510021515 12 196 4.8 11.3 0.00 0.00 0.00 81 1030.4
20260510011530 11 273 1.6 8.0 0.00 0.00 0.00 81 1031.2
20260510001513 11 224 0.0 8.0 0.00 0.00 0.00 85 1031.1
20260510000004 10 207 0.0 6.4 0.00 0.00 0.00 88 1031.1
20260509234608 10 274 0.0 6.4 0.00 0.00 0.00 90 1031.1
20260509233011 10 269 1.6 4.8 0.00 0.00 0.00 92 1031.2
20260509231506 10 269 1.6 4.8 0.00 0.00 0.00 92 1031.1
20260509230012 10 269 0.0 4.8 0.00 0.00 0.00 92 1031.1
20260509224605 10 269 0.0 4.8 0.00 0.03 0.00 91 1031.1
20260509223006 10 269 0.0 4.8 0.00 0.03 0.00 92 1031.0
20260509221605 9 269 1.6 4.8 0.00 0.03 0.00 91 1030.8
20260509220006 9 269 0.0 6.4 0.00 0.03 0.00 91 1030.6
20260509213011 9 269 3.2 4.8 0.00 0.03 0.00 91 1030.0
20260509211504 9 269 1.6 6.4 0.00 0.03 0.00 91 1029.8
20260509210012 9 269 3.2 6.4 0.00 0.03 0.00 91 1029.7